sat.trackr.live / text

‹ back to catalog

AIST-2T 1

NORAD 67253 · 2025-313F

PAYLOAD ACTIVE UNKNOWN

§ Identity

Operator
Country
CIS
Launch date
2025-12-28
Launch site
VOSTO
Launch vehicle
Mass (kg)
RCS (m²)

External: N2YO · Heavens-Above · Gunter

§ Orbital elements

Epoch: 2026-09-20T23:15:10.666080Z

Period
92.27 min
Inclination
97.0753°
Eccentricity
0.0004826
Mean motion
15.60671742 rev/d
Perigee alt
382.5 km
Apogee alt
389.0 km
Semi-major
6,763.9 km
B*
2.3481e-4
RAAN
341.4144°
Arg perigee
228.5165°
Mean anomaly
131.5680°
Rev number
4,156

§ Raw data

AIST-2T 11 67253U 25313F   26263.96887345  .00019376  00000+0  23481-3 0  99922 67253  97.0753 341.4144 0004826 228.5165 131.5680 15.60671742 41565

JSON: /api/v1/satellites/67253 · /tle

For live sub-satellite position, see the globe view (requires WebGL).

§ Visibility from observer

Set your observer location to see the next 7 days of passes ≥ 10°. The values pass through the URL so the page stays shareable.

No JS? Fill the form by hand. The geolocation button needs JavaScript.

§ Radio — SatNOGS DB

ModeDescriptionDownlinkUplink
FM Telemetry 435.792 MHz
FM Telemetry 436.090 MHz

2 transmitters · refreshed weekly from db.satnogs.org